Location: Newark
(45.4422°N, 16.2769°E)
Time: 12:54:03
(UTC+00:00)

Tiros 1 despin weight - Pass Details

Date: 19 December 2019
Orbit: 594 x 642 km, 48.2° (Epoch: 27 January)

Event Time Altitude Azimuth Distance (km) Brightness Sun altitude
Rises 23:09:08 0° 200° (SSW) 2,919 - -67.7°
Reaches altitude 10° 23:12:01 10° 182° (S) 2,008 - -67.6°
Maximum altitude 23:15:15 19° 138° (SE) 1,500 - -67.5°
Drops below altitude 10° 23:18:28 10° 93° (E) 1,997 - -67.3°
Sets 23:21:19 0° 76° (ENE) 2,897 - -67.2°
